DELTA 1 DEB, 2223

Orbit data source: Space-Track

DELTA 1 DEB, 2223 is space debris in SSO originally from a launch on Mon, 28 Feb 1966 UTC launched from the Air Force Eastern Test Range (AFETR). Debris objects in space refer to the collection of defunct objects orbiting the Earth. Examples of debris include non-operational satellites, rocket bodies, and fragments generated from explosions, collisions, or faulty payload assembly.

Loading next visibility...
Identifier
2223, 1966-016C
Orbit
SSO
Country
Flag of USUS
Related business
Manufacturer
Unknown
Mission
Spacecraft
Bus & Motor
Unknown
Mass
1 kg wet, 1 kg dry
Launch date (UTC)
1966-02-28 (60 years ago)
Launch vehicle
Unknown
Launch site
Air Force Eastern Test Range (AFETR)
Object type
Payload
Rocket body
Debris
Shape & HBR
Unknown
Radar Cross Section
Small (<0.1 m²)

Expand to show TLE details & history
Last TLE update: 1 day ago

TLE from 1 day ago
0 DELTA 1 DEB
1  2223U 66016C   26036.56306348 -.00000024  00000-0  73885-4 0  9992
2  2223 100.7461  69.7537 0094136 134.4942  19.9849 12.87767591810010
Epoch: 2026-02-05T13:30Z
TLE epoch observation values (Epoch: 2026-02-05T13:30:48.684Z)
Latitude
24.70505°
Longitude
-83.67901°
Altitude
1,245.216 km
Speed
7.266 km/s
True Right ascension
16h 58m 56s
True Declination
24° 34' 59"
Sunlit
Object was in daylight at epoch
Visualization orbit readout
Latitude
Unknown
Longitude
Unknown
Altitude
Unknown
Speed
Unknown
Apparent Right ascension
Unknown
Apparent Declination
Unknown
Sunlit
N/A
Visualization observer readout
Local Sidereal Time
02:04:12
Azimuth
Unknown
Elevation
Unknown
Doppler factor
Unknown
Orbital elements
Apogee altitude
1,380.189 km
Perigee altitude
1,235.484 km
Semi-major axis
7,685.973 km
Eccentricity
0.00941
Inclination
100.7461°
RAAN
69.7537°
Arg. of periapsis
134.4942°
True anomaly
20.35769°
Mean anomaly
19.9849°
Eccentric anomaly
20.17088°
Mean motion
3.22103 °/min
Orbital period
111.77 mins
BSTAR
0.000073885
Loading maneuver chart data...
Computing Atmospheric mass density...
Loading historical data...
Loading historical data...
Loading historical data...
Loading historical data...
Loading historical data...
Loading historical data...
Loading historical data...
Other satellites on launch #16 in the year 1966 (1966-02-28 UTC)

Documentation

Showing up to 5 results
|